OBOAK SPLO-SPGM

Flight info

Callsign OBOAK
Flight time N/A
Altitude 12000
Route ILO L525 JCL T311 KALAR/N0215F130 DCT ILROL DCT REPUL
Aircraft C408/M-SDFGRY/S

Departure

Time N/A
Airport General Jorge Fernandez Maldon Airport (SPLO)

Arrival

Time 2026-05-06 20:07
Airport Tingo Maria Airport (SPGM)
Time Latitude Longitude Altitude Speed Heading
2026-05-06 16:54 -17.17266 -72.15929 12003 ft 209 kts 309°
2026-05-06 16:54 -17.16369 -72.17067 11997 ft 201 kts 309°
2026-05-06 16:55 -17.15492 -72.18184 11994 ft 196 kts 309°
2026-05-06 16:55 -17.14636 -72.19281 11995 ft 193 kts 309°
2026-05-06 16:55 -17.13793 -72.20368 11997 ft 191 kts 309°
2026-05-06 16:55 -17.12959 -72.21449 11996 ft 190 kts 308°
2026-05-06 16:56 -17.12134 -72.22523 11996 ft 189 kts 308°
2026-05-06 16:56 -17.11315 -72.23595 11996 ft 188 kts 308°
2026-05-06 16:56 -17.10504 -72.24665 11997 ft 188 kts 308°
2026-05-06 16:56 -17.09694 -72.25737 11993 ft 187 kts 308°
2026-05-06 16:57 -17.08900 -72.26794 11993 ft 187 kts 308°
2026-05-06 16:57 -17.08098 -72.27867 12003 ft 187 kts 308°
2026-05-06 16:57 -17.07299 -72.28943 12003 ft 187 kts 308°
2026-05-06 16:57 -17.06504 -72.30019 12003 ft 187 kts 307°
2026-05-06 16:58 -17.05714 -72.31095 12006 ft 187 kts 307°
2026-05-06 16:58 -17.04924 -72.32176 12001 ft 187 kts 307°
2026-05-06 16:58 -17.04135 -72.33262 12004 ft 188 kts 307°
2026-05-06 16:58 -17.03350 -72.34348 12004 ft 188 kts 307°
2026-05-06 16:59 -17.02562 -72.35446 12004 ft 188 kts 307°
2026-05-06 16:59 -17.01763 -72.36568 12019 ft 199 kts 307°
2026-05-06 16:59 -17.00911 -72.37768 12024 ft 211 kts 307°
2026-05-06 16:59 -17.00029 -72.39007 12022 ft 219 kts 307°
2026-05-06 17:00 -16.99111 -72.40298 12021 ft 223 kts 307°
2026-05-06 17:00 -16.98179 -72.41611 12019 ft 227 kts 307°
2026-05-06 17:00 -16.97235 -72.42941 12021 ft 229 kts 306°
2026-05-06 17:00 -16.96284 -72.44283 12026 ft 229 kts 306°
2026-05-06 17:01 -16.95330 -72.45630 12020 ft 230 kts 306°
2026-05-06 17:01 -16.94379 -72.46975 12024 ft 230 kts 306°
2026-05-06 17:01 -16.93437 -72.48308 12023 ft 231 kts 306°
2026-05-06 17:01 -16.92483 -72.49659 12022 ft 231 kts 306°
2026-05-06 17:02 -16.91529 -72.51018 12024 ft 232 kts 305°
2026-05-06 17:02 -16.90610 -72.52401 12024 ft 232 kts 304°
2026-05-06 17:02 -16.89725 -72.53763 12007 ft 222 kts 301°
2026-05-06 17:02 -16.89099 -72.55202 12000 ft 215 kts 290°
2026-05-06 17:03 -16.88558 -72.56640 11998 ft 211 kts 291°
2026-05-06 17:03 -16.87990 -72.58038 11998 ft 208 kts 294°
2026-05-06 17:03 -16.87388 -72.59404 11998 ft 206 kts 295°
2026-05-06 17:03 -16.86758 -72.60743 12001 ft 205 kts 297°
2026-05-06 17:04 -16.86104 -72.62059 12002 ft 204 kts 298°
2026-05-06 17:04 -16.85426 -72.63358 11998 ft 203 kts 299°
2026-05-06 17:04 -16.84732 -72.64640 12005 ft 203 kts 300°
2026-05-06 17:04 -16.84031 -72.65898 12006 ft 202 kts 300°
2026-05-06 17:05 -16.83307 -72.67163 12007 ft 203 kts 301°
2026-05-06 17:05 -16.82575 -72.68423 12002 ft 203 kts 302°
2026-05-06 17:05 -16.81825 -72.69676 12002 ft 203 kts 302°
2026-05-06 17:05 -16.81070 -72.70928 12002 ft 204 kts 302°
2026-05-06 17:06 -16.80312 -72.72176 12005 ft 204 kts 303°
2026-05-06 17:06 -16.79538 -72.73414 12004 ft 204 kts 303°
2026-05-06 17:06 -16.78761 -72.74652 12004 ft 204 kts 303°
2026-05-06 17:06 -16.77984 -72.75891 12005 ft 204 kts 303°
2026-05-06 17:07 -16.77208 -72.77130 12005 ft 204 kts 303°
2026-05-06 17:07 -16.76420 -72.78366 12005 ft 204 kts 304°
2026-05-06 17:07 -16.75626 -72.79592 12005 ft 204 kts 304°
2026-05-06 17:07 -16.74839 -72.80803 12005 ft 204 kts 304°
2026-05-06 17:08 -16.74043 -72.82027 11999 ft 204 kts 304°
2026-05-06 17:08 -16.73244 -72.83254 12004 ft 204 kts 304°
2026-05-06 17:08 -16.72447 -72.84477 12005 ft 204 kts 304°
2026-05-06 17:08 -16.71649 -72.85701 12005 ft 204 kts 304°
2026-05-06 17:09 -16.70850 -72.86927 12008 ft 203 kts 304°
2026-05-06 17:09 -16.70053 -72.88143 12008 ft 203 kts 304°
2026-05-06 17:09 -16.69256 -72.89360 12006 ft 203 kts 304°
2026-05-06 17:09 -16.68468 -72.90565 12006 ft 203 kts 304°
2026-05-06 17:10 -16.67671 -72.91783 12008 ft 203 kts 304°
2026-05-06 17:10 -16.66873 -72.93002 12007 ft 202 kts 304°
2026-05-06 17:10 -16.66079 -72.94216 12004 ft 202 kts 304°
2026-05-06 17:10 -16.65287 -72.95433 12013 ft 203 kts 304°
2026-05-06 17:11 -16.64499 -72.96654 12011 ft 203 kts 304°
2026-05-06 17:11 -16.63708 -72.97876 12012 ft 203 kts 304°
2026-05-06 17:11 -16.62918 -72.99095 12012 ft 203 kts 304°
2026-05-06 17:11 -16.62129 -73.00319 12012 ft 204 kts 304°
2026-05-06 17:12 -16.61339 -73.01549 12015 ft 204 kts 304°
2026-05-06 17:12 -16.60559 -73.02759 12018 ft 204 kts 304°
2026-05-06 17:12 -16.59766 -73.03986 12014 ft 204 kts 304°
2026-05-06 17:12 -16.58975 -73.05212 12015 ft 204 kts 304°
2026-05-06 17:13 -16.58178 -73.06440 12015 ft 204 kts 305°
2026-05-06 17:13 -16.57368 -73.07652 12017 ft 203 kts 306°
2026-05-06 17:13 -16.56555 -73.08858 12020 ft 203 kts 306°
2026-05-06 17:13 -16.55745 -73.10065 12017 ft 203 kts 305°
2026-05-06 17:14 -16.54950 -73.11279 12014 ft 202 kts 304°
2026-05-06 17:14 -16.54160 -73.12493 12016 ft 202 kts 304°
2026-05-06 17:14 -16.53369 -73.13707 12012 ft 202 kts 304°
2026-05-06 17:14 -16.52579 -73.14922 12012 ft 203 kts 305°
2026-05-06 17:15 -16.51790 -73.16140 12010 ft 203 kts 304°
2026-05-06 17:15 -16.50997 -73.17364 12011 ft 204 kts 304°
2026-05-06 17:15 -16.50201 -73.18592 12010 ft 204 kts 305°
2026-05-06 17:15 -16.49418 -73.19800 12021 ft 204 kts 304°
2026-05-06 17:16 -16.48623 -73.21020 12021 ft 203 kts 304°
2026-05-06 17:16 -16.47826 -73.22241 12024 ft 203 kts 304°
2026-05-06 17:16 -16.47031 -73.23458 12018 ft 203 kts 305°
2026-05-06 17:16 -16.46239 -73.24673 12020 ft 203 kts 305°
2026-05-06 17:17 -16.45444 -73.25889 12021 ft 203 kts 305°
2026-05-06 17:17 -16.44650 -73.27103 12018 ft 202 kts 305°
2026-05-06 17:17 -16.43852 -73.28318 12014 ft 203 kts 306°
2026-05-06 17:17 -16.43043 -73.29526 12015 ft 204 kts 306°
2026-05-06 17:18 -16.42232 -73.30737 12018 ft 204 kts 306°
2026-05-06 17:18 -16.41424 -73.31957 12017 ft 205 kts 306°
2026-05-06 17:18 -16.40626 -73.33166 12020 ft 206 kts 306°
2026-05-06 17:18 -16.39818 -73.34400 12016 ft 206 kts 306°
2026-05-06 17:19 -16.39008 -73.35626 12018 ft 205 kts 306°
2026-05-06 17:19 -16.38188 -73.36849 12017 ft 205 kts 306°
2026-05-06 17:19 -16.37375 -73.38067 12010 ft 205 kts 306°
2026-05-06 17:19 -16.36836 -73.38871 12011 ft 204 kts 306°
2026-05-06 17:20 -16.36021 -73.40080 12012 ft 204 kts 306°
2026-05-06 17:20 -16.35206 -73.41288 12009 ft 204 kts 306°
2026-05-06 17:20 -16.34396 -73.42500 12006 ft 204 kts 306°
2026-05-06 17:20 -16.33588 -73.43716 12005 ft 204 kts 306°
2026-05-06 17:21 -16.32777 -73.44932 12007 ft 204 kts 306°
2026-05-06 17:21 -16.31979 -73.46157 12007 ft 204 kts 305°
2026-05-06 17:21 -16.31186 -73.47386 12009 ft 204 kts 305°
2026-05-06 17:21 -16.30391 -73.48612 12009 ft 204 kts 305°
2026-05-06 17:22 -16.29597 -73.49838 12007 ft 204 kts 305°
2026-05-06 17:22 -16.28804 -73.51070 12006 ft 205 kts 305°
2026-05-06 17:22 -16.28015 -73.52281 12001 ft 205 kts 306°
2026-05-06 17:22 -16.27201 -73.53504 12001 ft 205 kts 306°
2026-05-06 17:23 -16.26388 -73.54723 11999 ft 205 kts 306°
2026-05-06 17:23 -16.25576 -73.55943 11999 ft 205 kts 306°
2026-05-06 17:23 -16.24777 -73.57175 12011 ft 205 kts 305°
2026-05-06 17:23 -16.23942 -73.58378 12007 ft 205 kts 313°
2026-05-06 17:24 -16.22948 -73.59447 12014 ft 205 kts 316°
2026-05-06 17:24 -16.21930 -73.60489 12021 ft 205 kts 317°
2026-05-06 17:24 -16.20912 -73.61521 12016 ft 204 kts 316°
2026-05-06 17:24 -16.19908 -73.62563 12011 ft 202 kts 316°
2026-05-06 17:25 -16.18915 -73.63605 12014 ft 204 kts 316°
2026-05-06 17:25 -16.17917 -73.64659 12013 ft 204 kts 316°
2026-05-06 17:25 -16.16935 -73.65695 12018 ft 204 kts 316°
2026-05-06 17:25 -16.15934 -73.66745 12022 ft 204 kts 316°
2026-05-06 17:26 -16.14933 -73.67789 12023 ft 204 kts 316°
2026-05-06 17:26 -16.13930 -73.68838 12020 ft 204 kts 316°
2026-05-06 17:26 -16.12929 -73.69884 12025 ft 204 kts 316°
2026-05-06 17:26 -16.11929 -73.70930 12023 ft 205 kts 317°
2026-05-06 17:27 -16.10916 -73.71966 12017 ft 203 kts 317°
2026-05-06 17:27 -16.09909 -73.73006 12020 ft 204 kts 317°
2026-05-06 17:27 -16.08900 -73.74052 12020 ft 204 kts 316°
2026-05-06 17:27 -16.07911 -73.75084 12021 ft 204 kts 316°
2026-05-06 17:28 -16.06910 -73.76131 12021 ft 204 kts 316°
2026-05-06 17:28 -16.05910 -73.77185 12013 ft 205 kts 316°
2026-05-06 17:28 -16.04912 -73.78239 12015 ft 205 kts 316°
2026-05-06 17:28 -16.03909 -73.79291 12012 ft 205 kts 316°
2026-05-06 17:29 -16.02905 -73.80344 12012 ft 205 kts 316°
2026-05-06 17:29 -16.01899 -73.81393 12012 ft 205 kts 316°
2026-05-06 17:29 -16.00895 -73.82442 12005 ft 204 kts 316°
2026-05-06 17:29 -15.99895 -73.83480 12013 ft 203 kts 316°
2026-05-06 17:30 -15.98931 -73.84475 12018 ft 203 kts 316°
2026-05-06 17:30 -15.97930 -73.85513 12017 ft 203 kts 316°
2026-05-06 17:30 -15.96936 -73.86553 12018 ft 203 kts 316°
2026-05-06 17:30 -15.95937 -73.87593 12020 ft 203 kts 316°
2026-05-06 17:31 -15.94940 -73.88627 12021 ft 203 kts 316°
2026-05-06 17:31 -15.93943 -73.89664 12022 ft 202 kts 315°
2026-05-06 17:31 -15.92970 -73.90694 12023 ft 202 kts 315°
2026-05-06 17:31 -15.91989 -73.91733 12021 ft 201 kts 315°
2026-05-06 17:32 -15.91010 -73.92775 12014 ft 201 kts 315°
2026-05-06 17:32 -15.90032 -73.93813 12007 ft 201 kts 316°
2026-05-06 17:32 -15.89053 -73.94843 12005 ft 200 kts 316°
2026-05-06 17:32 -15.88078 -73.95872 12014 ft 199 kts 316°
2026-05-06 17:33 -15.87097 -73.96893 12037 ft 200 kts 316°
2026-05-06 17:33 -15.86105 -73.97919 12037 ft 202 kts 316°
2026-05-06 17:33 -15.85111 -73.98951 12038 ft 203 kts 316°
2026-05-06 17:33 -15.84114 -73.99996 12037 ft 203 kts 316°
2026-05-06 17:34 -15.83118 -74.01041 12042 ft 203 kts 316°
2026-05-06 17:34 -15.82118 -74.02081 12042 ft 204 kts 316°
2026-05-06 17:34 -15.81114 -74.03121 12043 ft 204 kts 316°
2026-05-06 17:34 -15.80120 -74.04148 12040 ft 204 kts 316°
2026-05-06 17:35 -15.79124 -74.05200 12043 ft 204 kts 315°
2026-05-06 17:35 -15.78133 -74.06246 12036 ft 204 kts 315°
2026-05-06 17:35 -15.77141 -74.07297 12036 ft 203 kts 315°
2026-05-06 17:36 -15.75163 -74.09400 12029 ft 204 kts 315°
2026-05-06 17:36 -15.74168 -74.10444 12034 ft 203 kts 315°
2026-05-06 17:36 -15.73169 -74.11485 12034 ft 203 kts 315°
2026-05-06 17:36 -15.72175 -74.12517 12037 ft 202 kts 315°
2026-05-06 17:37 -15.71182 -74.13557 12034 ft 202 kts 315°
2026-05-06 17:37 -15.70187 -74.14595 12037 ft 202 kts 315°
2026-05-06 17:37 -15.69195 -74.15627 12028 ft 201 kts 315°
2026-05-06 17:37 -15.68215 -74.16648 12032 ft 199 kts 315°
2026-05-06 17:38 -15.67236 -74.17675 12026 ft 200 kts 315°
2026-05-06 17:38 -15.66256 -74.18698 12025 ft 200 kts 315°
2026-05-06 17:38 -15.65290 -74.19701 12026 ft 199 kts 315°
2026-05-06 17:38 -15.64315 -74.20720 12027 ft 199 kts 315°
2026-05-06 17:39 -15.63329 -74.21751 12008 ft 200 kts 315°
2026-05-06 17:39 -15.62358 -74.22766 12019 ft 201 kts 315°
2026-05-06 17:39 -15.61370 -74.23801 12020 ft 202 kts 315°
2026-05-06 17:39 -15.60382 -74.24839 12014 ft 201 kts 316°
2026-05-06 17:40 -15.59391 -74.25857 12023 ft 200 kts 316°
2026-05-06 17:40 -15.58406 -74.26873 12028 ft 200 kts 315°
2026-05-06 17:40 -15.57418 -74.27899 12027 ft 201 kts 315°
2026-05-06 17:40 -15.56431 -74.28925 12031 ft 202 kts 315°
2026-05-06 17:41 -15.55439 -74.29959 12029 ft 203 kts 315°
2026-05-06 17:41 -15.54440 -74.30999 12031 ft 203 kts 315°
2026-05-06 17:41 -15.53440 -74.32040 12033 ft 204 kts 315°
2026-05-06 17:41 -15.52440 -74.33075 12029 ft 202 kts 315°
2026-05-06 17:42 -15.51445 -74.34104 12026 ft 202 kts 315°
2026-05-06 17:42 -15.50461 -74.35122 12027 ft 203 kts 315°
2026-05-06 17:42 -15.49462 -74.36159 12009 ft 204 kts 316°
2026-05-06 17:42 -15.48464 -74.37208 12009 ft 204 kts 316°
2026-05-06 17:43 -15.47461 -74.38254 12003 ft 205 kts 316°
2026-05-06 17:43 -15.46450 -74.39296 12003 ft 205 kts 316°
2026-05-06 17:43 -15.45435 -74.40333 12005 ft 204 kts 316°
2026-05-06 17:43 -15.44427 -74.41366 12007 ft 204 kts 316°
2026-05-06 17:44 -15.43419 -74.42419 12002 ft 206 kts 316°
2026-05-06 17:44 -15.42400 -74.43467 12007 ft 206 kts 316°
2026-05-06 17:44 -15.41390 -74.44510 12011 ft 204 kts 315°
2026-05-06 17:44 -15.40391 -74.45554 12009 ft 204 kts 315°
2026-05-06 17:45 -15.39396 -74.46602 12007 ft 204 kts 315°
2026-05-06 17:45 -15.38404 -74.47652 12002 ft 203 kts 316°
2026-05-06 17:45 -15.37407 -74.48680 12003 ft 202 kts 316°
2026-05-06 17:45 -15.36419 -74.49710 12008 ft 201 kts 315°
2026-05-06 17:46 -15.35431 -74.50745 11993 ft 202 kts 315°
2026-05-06 17:46 -15.34442 -74.51782 11990 ft 202 kts 315°
2026-05-06 17:46 -15.33455 -74.52815 11992 ft 202 kts 316°
2026-05-06 17:46 -15.32484 -74.53834 11994 ft 200 kts 315°
2026-05-06 17:47 -15.31504 -74.54859 11996 ft 200 kts 315°
2026-05-06 17:47 -15.30522 -74.55878 11993 ft 199 kts 315°
2026-05-06 17:47 -15.29544 -74.56893 11996 ft 199 kts 315°
2026-05-06 17:47 -15.28562 -74.57910 11995 ft 199 kts 316°
2026-05-06 17:48 -15.27578 -74.58934 11994 ft 201 kts 315°
2026-05-06 17:48 -15.26588 -74.59969 11993 ft 202 kts 315°
2026-05-06 17:48 -15.25596 -74.61004 11996 ft 202 kts 315°
2026-05-06 17:48 -15.24602 -74.62034 12001 ft 202 kts 316°
2026-05-06 17:49 -15.23620 -74.63053 12023 ft 203 kts 315°
2026-05-06 17:49 -15.22610 -74.64101 12018 ft 203 kts 316°
2026-05-06 17:49 -15.21626 -74.65128 11997 ft 203 kts 315°
2026-05-06 17:49 -15.20622 -74.66158 11996 ft 203 kts 316°
2026-05-06 17:50 -15.19615 -74.67179 11994 ft 202 kts 316°
2026-05-06 17:50 -15.18614 -74.68197 11997 ft 202 kts 316°
2026-05-06 17:50 -15.17622 -74.69225 11995 ft 202 kts 315°
2026-05-06 17:50 -15.16634 -74.70250 11999 ft 201 kts 316°
2026-05-06 17:51 -15.15643 -74.71276 11996 ft 202 kts 316°
2026-05-06 17:51 -15.14660 -74.72298 11994 ft 202 kts 316°
2026-05-06 17:51 -15.13724 -74.73272 11992 ft 202 kts 315°
2026-05-06 17:51 -15.12732 -74.74303 11995 ft 202 kts 316°
2026-05-06 17:52 -15.11740 -74.75327 11999 ft 202 kts 316°
2026-05-06 17:52 -15.10752 -74.76341 12014 ft 201 kts 315°
2026-05-06 17:52 -15.09754 -74.77353 12016 ft 201 kts 315°
2026-05-06 17:52 -15.08757 -74.78364 12015 ft 201 kts 315°
2026-05-06 17:53 -15.07761 -74.79372 11992 ft 200 kts 316°
2026-05-06 17:53 -15.06769 -74.80381 11994 ft 200 kts 315°
2026-05-06 17:53 -15.05792 -74.81401 11994 ft 199 kts 315°
2026-05-06 17:53 -15.04819 -74.82423 11993 ft 199 kts 315°
2026-05-06 17:54 -15.03847 -74.83441 11993 ft 199 kts 315°
2026-05-06 17:54 -15.02875 -74.84460 11994 ft 199 kts 315°
2026-05-06 17:54 -15.01903 -74.85478 11993 ft 199 kts 315°
2026-05-06 17:54 -15.00929 -74.86495 11992 ft 199 kts 315°
2026-05-06 17:55 -14.99962 -74.87505 11995 ft 200 kts 315°
2026-05-06 17:55 -14.98984 -74.88529 11995 ft 200 kts 315°
2026-05-06 17:55 -14.98007 -74.89549 12003 ft 199 kts 315°
2026-05-06 17:55 -14.97032 -74.90567 12005 ft 199 kts 315°
2026-05-06 17:56 -14.96055 -74.91584 12002 ft 199 kts 315°
2026-05-06 17:56 -14.95070 -74.92593 12000 ft 199 kts 315°
2026-05-06 17:56 -14.94078 -74.93595 12001 ft 199 kts 316°
2026-05-06 17:56 -14.93083 -74.94595 12000 ft 199 kts 316°
2026-05-06 17:57 -14.92090 -74.95596 12005 ft 199 kts 315°
2026-05-06 17:57 -14.91107 -74.96611 12005 ft 199 kts 315°
2026-05-06 17:57 -14.90136 -74.97624 12006 ft 199 kts 314°
2026-05-06 17:57 -14.89172 -74.98654 12003 ft 199 kts 314°
2026-05-06 17:58 -14.88224 -74.99674 12003 ft 199 kts 314°
2026-05-06 17:58 -14.87264 -75.00708 12001 ft 199 kts 314°
2026-05-06 17:58 -14.86302 -75.01742 12001 ft 199 kts 314°
2026-05-06 17:58 -14.85340 -75.02778 12019 ft 199 kts 314°
2026-05-06 17:59 -14.84381 -75.03810 12020 ft 199 kts 314°
2026-05-06 17:59 -14.83421 -75.04841 12018 ft 199 kts 314°
2026-05-06 17:59 -14.82472 -75.05861 12019 ft 199 kts 314°
2026-05-06 17:59 -14.81512 -75.06895 11979 ft 200 kts 314°
2026-05-06 18:00 -14.80543 -75.07924 11979 ft 200 kts 315°
2026-05-06 18:00 -14.79567 -75.08956 11978 ft 201 kts 315°
2026-05-06 18:00 -14.78588 -75.09995 11980 ft 201 kts 315°
2026-05-06 18:00 -14.77625 -75.11019 11989 ft 201 kts 315°
2026-05-06 18:01 -14.76647 -75.12050 11989 ft 201 kts 315°
2026-05-06 18:01 -14.75669 -75.13082 11986 ft 201 kts 315°
2026-05-06 18:01 -14.74691 -75.14118 11987 ft 202 kts 315°
2026-05-06 18:01 -14.73711 -75.15159 11988 ft 202 kts 315°
2026-05-06 18:02 -14.72729 -75.16194 12011 ft 202 kts 315°
2026-05-06 18:02 -14.71747 -75.17231 12017 ft 202 kts 315°
2026-05-06 18:02 -14.70768 -75.18270 12016 ft 201 kts 314°
2026-05-06 18:02 -14.69800 -75.19317 12016 ft 201 kts 314°
2026-05-06 18:03 -14.68834 -75.20366 12011 ft 201 kts 314°
2026-05-06 18:03 -14.67868 -75.21416 11986 ft 202 kts 314°
2026-05-06 18:03 -14.66892 -75.22462 11985 ft 203 kts 315°
2026-05-06 18:03 -14.65906 -75.23507 11986 ft 203 kts 315°
2026-05-06 18:04 -14.64919 -75.24549 11981 ft 203 kts 315°
2026-05-06 18:04 -14.64265 -75.25236 11982 ft 202 kts 315°
2026-05-06 18:04 -14.63280 -75.26274 11984 ft 203 kts 315°
2026-05-06 18:04 -14.62289 -75.27315 11982 ft 203 kts 315°
2026-05-06 18:05 -14.60978 -75.28703 11979 ft 204 kts 315°
2026-05-06 18:05 -14.59989 -75.29754 11980 ft 204 kts 315°
2026-05-06 18:05 -14.58997 -75.30804 11981 ft 204 kts 315°
2026-05-06 18:05 -14.58328 -75.31514 11987 ft 204 kts 315°
2026-05-06 18:06 -14.57347 -75.32550 11986 ft 204 kts 315°
2026-05-06 18:06 -14.56363 -75.33601 11988 ft 203 kts 314°
2026-05-06 18:06 -14.55389 -75.34657 11989 ft 202 kts 314°
2026-05-06 18:06 -14.54418 -75.35712 11978 ft 202 kts 314°
2026-05-06 18:07 -14.53448 -75.36771 11974 ft 203 kts 314°
2026-05-06 18:07 -14.52480 -75.37827 11977 ft 202 kts 314°
2026-05-06 18:07 -14.51508 -75.38879 11980 ft 202 kts 314°
2026-05-06 18:07 -14.50538 -75.39930 11975 ft 202 kts 314°
2026-05-06 18:08 -14.49569 -75.40982 11973 ft 202 kts 314°
2026-05-06 18:08 -14.48614 -75.42016 11975 ft 202 kts 314°
2026-05-06 18:08 -14.47643 -75.43062 11974 ft 201 kts 315°
2026-05-06 18:08 -14.46665 -75.44102 11978 ft 203 kts 315°
2026-05-06 18:09 -14.45672 -75.45151 11981 ft 207 kts 316°
2026-05-06 18:09 -14.44645 -75.46219 11991 ft 209 kts 315°
2026-05-06 18:09 -14.43633 -75.47285 11994 ft 207 kts 315°
2026-05-06 18:09 -14.42633 -75.48344 11990 ft 205 kts 315°
2026-05-06 18:10 -14.41644 -75.49404 11984 ft 205 kts 315°
2026-05-06 18:10 -14.40657 -75.50458 11977 ft 205 kts 315°
2026-05-06 18:10 -14.39668 -75.51517 11972 ft 205 kts 316°
2026-05-06 18:10 -14.38667 -75.52569 11972 ft 206 kts 316°
2026-05-06 18:11 -14.37664 -75.53618 11971 ft 205 kts 316°
2026-05-06 18:11 -14.36662 -75.54666 11975 ft 204 kts 315°
2026-05-06 18:11 -14.35672 -75.55713 11976 ft 204 kts 315°
2026-05-06 18:11 -14.34687 -75.56758 11978 ft 203 kts 315°
2026-05-06 18:12 -14.33704 -75.57805 11986 ft 203 kts 315°
2026-05-06 18:12 -14.32717 -75.58854 11984 ft 203 kts 316°
2026-05-06 18:12 -14.31654 -75.59786 11981 ft 203 kts 317°
2026-05-06 18:12 -14.30671 -75.60820 11987 ft 202 kts 314°
2026-05-06 18:13 -14.29701 -75.61872 11987 ft 201 kts 314°
2026-05-06 18:13 -14.28740 -75.62919 11986 ft 201 kts 314°
2026-05-06 18:13 -14.27779 -75.63968 11984 ft 202 kts 314°
2026-05-06 18:13 -14.26813 -75.65031 11973 ft 203 kts 314°
2026-05-06 18:14 -14.25848 -75.66088 11976 ft 203 kts 314°
2026-05-06 18:14 -14.24880 -75.67154 11973 ft 204 kts 314°
2026-05-06 18:14 -14.23907 -75.68228 11974 ft 204 kts 314°
2026-05-06 18:14 -14.22938 -75.69290 11978 ft 203 kts 314°
2026-05-06 18:15 -14.21980 -75.70338 11981 ft 203 kts 314°
2026-05-06 18:15 -14.21008 -75.71404 11982 ft 205 kts 314°
2026-05-06 18:15 -14.20035 -75.72481 11982 ft 205 kts 314°
2026-05-06 18:15 -14.19060 -75.73555 11983 ft 205 kts 314°
2026-05-06 18:16 -14.18084 -75.74632 11988 ft 206 kts 314°
2026-05-06 18:16 -14.17103 -75.75707 11989 ft 206 kts 314°
2026-05-06 18:16 -14.16121 -75.76788 11986 ft 206 kts 314°
2026-05-06 18:16 -14.15141 -75.77871 11990 ft 206 kts 314°
2026-05-06 18:17 -14.14160 -75.78940 11979 ft 205 kts 314°
2026-05-06 18:17 -14.13194 -75.79991 11979 ft 204 kts 314°
2026-05-06 18:17 -14.12221 -75.81046 11976 ft 202 kts 314°
2026-05-06 18:17 -14.11252 -75.82098 11975 ft 202 kts 314°
2026-05-06 18:18 -14.10282 -75.83148 11968 ft 202 kts 314°
2026-05-06 18:18 -14.09319 -75.84194 11966 ft 201 kts 314°
2026-05-06 18:18 -14.08355 -75.85239 11966 ft 201 kts 314°
2026-05-06 18:18 -14.07392 -75.86283 11970 ft 201 kts 314°
2026-05-06 18:19 -14.06431 -75.87324 11964 ft 200 kts 314°
2026-05-06 18:19 -14.05469 -75.88363 11966 ft 200 kts 314°
2026-05-06 18:19 -14.04505 -75.89409 11966 ft 201 kts 314°
2026-05-06 18:19 -14.03540 -75.90456 11965 ft 201 kts 314°
2026-05-06 18:20 -14.02577 -75.91501 11969 ft 201 kts 314°
2026-05-06 18:20 -14.01627 -75.92531 11971 ft 201 kts 314°
2026-05-06 18:20 -14.00650 -75.93588 11965 ft 201 kts 314°
2026-05-06 18:20 -13.99682 -75.94634 11964 ft 201 kts 314°
2026-05-06 18:21 -13.98730 -75.95666 11962 ft 202 kts 314°
2026-05-06 18:21 -13.97764 -75.96714 11961 ft 202 kts 314°
2026-05-06 18:21 -13.96797 -75.97763 11961 ft 201 kts 314°
2026-05-06 18:21 -13.95831 -75.98809 11961 ft 201 kts 314°
2026-05-06 18:22 -13.94866 -75.99853 11970 ft 201 kts 314°
2026-05-06 18:22 -13.93903 -76.00897 11970 ft 201 kts 314°
2026-05-06 18:22 -13.92937 -76.01941 11970 ft 201 kts 314°
2026-05-06 18:22 -13.91972 -76.02982 11968 ft 201 kts 314°
2026-05-06 18:23 -13.91005 -76.04029 11962 ft 202 kts 314°
2026-05-06 18:23 -13.90037 -76.05074 11963 ft 201 kts 314°
2026-05-06 18:23 -13.89074 -76.06116 11962 ft 201 kts 314°
2026-05-06 18:23 -13.88122 -76.07143 11960 ft 201 kts 314°
2026-05-06 18:24 -13.87157 -76.08185 11957 ft 201 kts 314°
2026-05-06 18:24 -13.86194 -76.09226 11957 ft 201 kts 314°
2026-05-06 18:24 -13.85230 -76.10267 11958 ft 200 kts 314°
2026-05-06 18:24 -13.84267 -76.11307 11956 ft 201 kts 314°
2026-05-06 18:25 -13.83304 -76.12351 11958 ft 201 kts 314°
2026-05-06 18:25 -13.82339 -76.13396 11958 ft 201 kts 314°
2026-05-06 18:25 -13.81383 -76.14428 11965 ft 201 kts 314°
2026-05-06 18:25 -13.80416 -76.15473 11961 ft 202 kts 314°
2026-05-06 18:26 -13.79449 -76.16520 11961 ft 202 kts 314°
2026-05-06 18:26 -13.78479 -76.17563 11959 ft 201 kts 316°
2026-05-06 18:26 -13.77441 -76.18530 11960 ft 202 kts 321°
2026-05-06 18:26 -13.76354 -76.19447 11961 ft 202 kts 322°
2026-05-06 18:27 -13.75258 -76.20354 11963 ft 202 kts 323°
2026-05-06 18:27 -13.74131 -76.21215 11965 ft 202 kts 325°
2026-05-06 18:27 -13.72992 -76.22062 11966 ft 202 kts 327°
2026-05-06 18:27 -13.71775 -76.22780 11963 ft 201 kts 338°
2026-05-06 18:28 -13.70470 -76.23296 11966 ft 200 kts 342°
2026-05-06 18:28 -13.69170 -76.23806 11966 ft 200 kts 339°
2026-05-06 18:28 -13.67887 -76.24367 11964 ft 200 kts 339°
2026-05-06 18:28 -13.66607 -76.24930 11961 ft 200 kts 339°
2026-05-06 18:29 -13.65342 -76.25488 11963 ft 200 kts 338°
2026-05-06 18:29 -13.64063 -76.26054 11963 ft 200 kts 338°
2026-05-06 18:29 -13.62786 -76.26623 11965 ft 200 kts 338°
2026-05-06 18:29 -13.61509 -76.27192 11966 ft 200 kts 338°
2026-05-06 18:30 -13.60233 -76.27764 11965 ft 200 kts 338°
2026-05-06 18:30 -13.58958 -76.28337 11966 ft 199 kts 338°
2026-05-06 18:30 -13.57688 -76.28909 11966 ft 200 kts 338°
2026-05-06 18:30 -13.56415 -76.29485 11966 ft 200 kts 338°
2026-05-06 18:31 -13.55143 -76.30063 11966 ft 200 kts 338°
2026-05-06 18:31 -13.53889 -76.30635 11971 ft 200 kts 338°
2026-05-06 18:31 -13.52617 -76.31217 11972 ft 200 kts 338°
2026-05-06 18:31 -13.51346 -76.31800 11974 ft 200 kts 338°
2026-05-06 18:32 -13.50075 -76.32385 11976 ft 200 kts 337°
2026-05-06 18:32 -13.48807 -76.32971 11978 ft 200 kts 337°
2026-05-06 18:32 -13.47541 -76.33558 11978 ft 200 kts 337°
2026-05-06 18:32 -13.46276 -76.34147 11979 ft 200 kts 337°
2026-05-06 18:33 -13.45008 -76.34739 11980 ft 200 kts 336°
2026-05-06 18:33 -13.43758 -76.35325 11980 ft 200 kts 337°
2026-05-06 18:33 -13.42493 -76.35920 11980 ft 200 kts 336°
2026-05-06 18:33 -13.41224 -76.36518 11974 ft 200 kts 336°
2026-05-06 18:34 -13.39958 -76.37117 11980 ft 200 kts 336°
2026-05-06 18:34 -13.38693 -76.37718 11980 ft 200 kts 336°
2026-05-06 18:34 -13.37435 -76.38317 11982 ft 199 kts 336°
2026-05-06 18:34 -13.36179 -76.38918 11981 ft 199 kts 336°
2026-05-06 18:35 -13.34922 -76.39520 11981 ft 199 kts 335°
2026-05-06 18:35 -13.33637 -76.40011 11977 ft 196 kts 346°
2026-05-06 18:35 -13.32324 -76.40317 11974 ft 196 kts 353°
2026-05-06 18:35 -13.30971 -76.40527 11976 ft 197 kts 352°
2026-05-06 18:36 -13.29621 -76.40767 11974 ft 197 kts 351°
2026-05-06 18:36 -13.28276 -76.41044 11976 ft 197 kts 349°
2026-05-06 18:36 -13.26938 -76.41358 11984 ft 197 kts 348°
2026-05-06 18:36 -13.25607 -76.41708 11984 ft 198 kts 347°
2026-05-06 18:37 -13.24278 -76.42082 11983 ft 198 kts 346°
2026-05-06 18:37 -13.23399 -76.42338 11982 ft 199 kts 345°
2026-05-06 18:37 -13.21627 -76.42893 11984 ft 199 kts 343°
2026-05-06 18:37 -13.20305 -76.43326 11985 ft 199 kts 343°
2026-05-06 18:38 -13.18989 -76.43771 11982 ft 199 kts 342°
2026-05-06 18:38 -13.17689 -76.44222 11983 ft 199 kts 342°
2026-05-06 18:38 -13.16381 -76.44692 11983 ft 199 kts 342°
2026-05-06 18:38 -13.15095 -76.45168 11983 ft 199 kts 341°
2026-05-06 18:39 -13.13790 -76.45648 11979 ft 199 kts 342°
2026-05-06 18:39 -13.12484 -76.46134 11982 ft 199 kts 341°
2026-05-06 18:39 -13.11187 -76.46628 11985 ft 198 kts 340°
2026-05-06 18:40 -13.08598 -76.47616 11987 ft 197 kts 340°
2026-05-06 18:40 -13.07318 -76.48121 11986 ft 197 kts 340°
2026-05-06 18:40 -13.06041 -76.48631 11985 ft 197 kts 340°
2026-05-06 18:40 -13.04767 -76.49144 11984 ft 197 kts 339°
2026-05-06 18:41 -13.03506 -76.49649 11985 ft 197 kts 339°
2026-05-06 18:41 -13.02231 -76.50163 11984 ft 197 kts 339°
2026-05-06 18:41 -13.01368 -76.50513 11983 ft 197 kts 339°
2026-05-06 18:41 -12.99671 -76.51199 11979 ft 198 kts 340°
2026-05-06 18:42 -12.98388 -76.51719 11985 ft 199 kts 339°
2026-05-06 18:42 -12.97101 -76.52238 11987 ft 198 kts 339°
2026-05-06 18:42 -12.95813 -76.52755 11986 ft 199 kts 340°
2026-05-06 18:42 -12.94521 -76.53268 11987 ft 199 kts 340°
2026-05-06 18:43 -12.93226 -76.53767 11985 ft 199 kts 341°
2026-05-06 18:43 -12.91926 -76.54271 11985 ft 199 kts 340°
2026-05-06 18:43 -12.90628 -76.54774 11986 ft 199 kts 340°
2026-05-06 18:43 -12.89349 -76.55281 11983 ft 200 kts 340°
2026-05-06 18:44 -12.88055 -76.55805 11983 ft 200 kts 339°
2026-05-06 18:44 -12.86763 -76.56327 11984 ft 199 kts 339°
2026-05-06 18:44 -12.85470 -76.56847 11992 ft 199 kts 340°
2026-05-06 18:44 -12.84177 -76.57371 11992 ft 200 kts 339°
2026-05-06 18:45 -12.82886 -76.57893 11991 ft 200 kts 340°
2026-05-06 18:45 -12.81576 -76.58427 11996 ft 205 kts 339°
2026-05-06 18:45 -12.80227 -76.58976 11992 ft 211 kts 339°
2026-05-06 18:45 -12.79319 -76.59342 11992 ft 213 kts 339°
2026-05-06 18:46 -12.77477 -76.60084 11994 ft 216 kts 339°
2026-05-06 18:46 -12.76068 -76.60649 11994 ft 218 kts 337°
2026-05-06 18:46 -12.74745 -76.61416 11992 ft 219 kts 328°
2026-05-06 18:46 -12.73472 -76.62282 11991 ft 220 kts 327°
2026-05-06 18:47 -12.72202 -76.63172 11991 ft 221 kts 326°
2026-05-06 18:47 -12.70940 -76.64073 12002 ft 221 kts 325°
2026-05-06 18:47 -12.69681 -76.64976 11987 ft 222 kts 326°
2026-05-06 18:47 -12.68414 -76.65887 11982 ft 223 kts 326°
2026-05-06 18:48 -12.67154 -76.66773 11981 ft 222 kts 326°
2026-05-06 18:48 -12.65988 -76.67579 11981 ft 221 kts 327°
2026-05-06 18:48 -12.64727 -76.68450 11980 ft 221 kts 326°
2026-05-06 18:48 -12.63454 -76.69329 11981 ft 221 kts 326°
2026-05-06 18:49 -12.62178 -76.70209 11864 ft 225 kts 326°
2026-05-06 18:49 -12.60894 -76.71104 11920 ft 220 kts 326°
2026-05-06 18:49 -12.59646 -76.71990 11967 ft 218 kts 326°
2026-05-06 18:49 -12.58392 -76.72870 11968 ft 219 kts 326°
2026-05-06 18:50 -12.57122 -76.73746 11847 ft 225 kts 326°
2026-05-06 18:50 -12.55839 -76.74640 11903 ft 220 kts 326°
2026-05-06 18:50 -12.54575 -76.75518 11976 ft 217 kts 326°
2026-05-06 18:50 -12.53317 -76.76385 11972 ft 219 kts 327°
2026-05-06 18:51 -12.52069 -76.77247 11977 ft 219 kts 326°
2026-05-06 18:51 -12.50799 -76.78119 11978 ft 220 kts 326°
2026-05-06 18:51 -12.49525 -76.78996 11979 ft 221 kts 326°
2026-05-06 18:51 -12.48247 -76.79872 11974 ft 221 kts 326°
2026-05-06 18:52 -12.46968 -76.80750 11974 ft 221 kts 326°
2026-05-06 18:52 -12.45696 -76.81621 11973 ft 220 kts 327°
2026-05-06 18:52 -12.44422 -76.82496 11974 ft 221 kts 326°
2026-05-06 18:52 -12.43155 -76.83375 11979 ft 219 kts 326°
2026-05-06 18:53 -12.41917 -76.84244 11977 ft 218 kts 326°
2026-05-06 18:53 -12.41073 -76.84837 11976 ft 218 kts 326°
2026-05-06 18:53 -12.39414 -76.86007 11975 ft 218 kts 326°
2026-05-06 18:53 -12.38167 -76.86886 11980 ft 218 kts 326°
2026-05-06 18:54 -12.37338 -76.87471 12426 ft 219 kts 325°
2026-05-06 18:54 -12.36057 -76.88366 11908 ft 221 kts 326°
2026-05-06 18:54 -12.34803 -76.89252 11968 ft 218 kts 325°
2026-05-06 18:54 -12.33146 -76.90420 11966 ft 219 kts 326°
2026-05-06 18:55 -12.31880 -76.91291 11966 ft 220 kts 326°
2026-05-06 18:55 -12.31019 -76.91877 11966 ft 220 kts 327°
2026-05-06 18:55 -12.29761 -76.92734 11971 ft 220 kts 326°
2026-05-06 18:55 -12.28470 -76.93614 11973 ft 220 kts 327°
2026-05-06 18:56 -12.27206 -76.94473 12411 ft 222 kts 326°
2026-05-06 18:56 -12.25909 -76.95364 11868 ft 223 kts 326°
2026-05-06 18:56 -12.24642 -76.96254 11945 ft 219 kts 326°
2026-05-06 18:56 -12.23383 -76.97141 11941 ft 220 kts 326°
2026-05-06 18:57 -12.22121 -76.98029 11937 ft 222 kts 325°
2026-05-06 18:57 -12.20837 -76.98925 11954 ft 220 kts 326°
2026-05-06 18:57 -12.19569 -76.99793 11969 ft 219 kts 326°
2026-05-06 18:57 -12.18315 -77.00645 11970 ft 219 kts 327°
2026-05-06 18:58 -12.17039 -77.01510 11945 ft 221 kts 326°
2026-05-06 18:58 -12.15749 -77.02399 11928 ft 221 kts 326°
2026-05-06 18:58 -12.14484 -77.03280 11974 ft 220 kts 326°
2026-05-06 18:58 -12.13212 -77.04148 11975 ft 220 kts 327°
2026-05-06 18:59 -12.11934 -77.05020 11975 ft 221 kts 327°
2026-05-06 18:59 -12.10653 -77.05892 11979 ft 221 kts 327°
2026-05-06 18:59 -12.09368 -77.06767 11981 ft 221 kts 326°
2026-05-06 18:59 -12.08094 -77.07649 11983 ft 221 kts 326°
2026-05-06 19:00 -12.06825 -77.08531 11979 ft 221 kts 326°
2026-05-06 19:00 -12.05576 -77.09400 11979 ft 220 kts 326°
2026-05-06 19:00 -12.04315 -77.10289 11980 ft 220 kts 324°
2026-05-06 19:00 -12.03019 -77.11101 11977 ft 219 kts 333°
2026-05-06 19:01 -12.01649 -77.11791 11979 ft 219 kts 334°
2026-05-06 19:01 -12.00272 -77.12462 11979 ft 219 kts 335°
2026-05-06 19:01 -11.98894 -77.13132 11980 ft 220 kts 335°
2026-05-06 19:01 -11.97511 -77.13806 11953 ft 221 kts 334°
2026-05-06 19:02 -11.96126 -77.14480 11956 ft 220 kts 334°
2026-05-06 19:02 -11.94744 -77.15152 11961 ft 220 kts 335°
2026-05-06 19:02 -11.93363 -77.15824 11962 ft 219 kts 334°
2026-05-06 19:02 -11.92004 -77.16483 11960 ft 219 kts 335°
2026-05-06 19:03 -11.90613 -77.17159 11958 ft 219 kts 335°
2026-05-06 19:03 -11.89257 -77.17818 11963 ft 219 kts 334°
2026-05-06 19:03 -11.87878 -77.18487 11963 ft 219 kts 335°
2026-05-06 19:03 -11.86500 -77.19156 11962 ft 219 kts 335°
2026-05-06 19:04 -11.85121 -77.19826 11916 ft 221 kts 334°
2026-05-06 19:04 -11.83724 -77.20516 11903 ft 220 kts 334°
2026-05-06 19:04 -11.82356 -77.21206 11961 ft 218 kts 334°
2026-05-06 19:04 -11.80996 -77.21893 11960 ft 218 kts 334°
2026-05-06 19:05 -11.79651 -77.22571 12395 ft 220 kts 333°
2026-05-06 19:05 -11.78261 -77.23263 11878 ft 220 kts 334°
2026-05-06 19:05 -11.76891 -77.23939 11953 ft 217 kts 335°
2026-05-06 19:05 -11.75523 -77.24613 11951 ft 219 kts 335°
2026-05-06 19:06 -11.74151 -77.25290 11910 ft 221 kts 334°
2026-05-06 19:06 -11.72754 -77.25969 11918 ft 220 kts 334°
2026-05-06 19:06 -11.71381 -77.26641 11953 ft 219 kts 335°
2026-05-06 19:06 -11.70005 -77.27314 11953 ft 219 kts 335°
2026-05-06 19:07 -11.68623 -77.27989 11913 ft 221 kts 334°
2026-05-06 19:07 -11.67234 -77.28679 11910 ft 220 kts 334°
2026-05-06 19:07 -11.65863 -77.29354 11952 ft 219 kts 334°
2026-05-06 19:07 -11.64489 -77.30026 11951 ft 219 kts 335°
2026-05-06 19:08 -11.63109 -77.30701 11955 ft 220 kts 335°
2026-05-06 19:08 -11.61726 -77.31378 11957 ft 220 kts 335°
2026-05-06 19:08 -11.60357 -77.32047 11964 ft 220 kts 335°
2026-05-06 19:08 -11.58974 -77.32724 11963 ft 220 kts 334°
2026-05-06 19:09 -11.57593 -77.33399 11970 ft 220 kts 335°
2026-05-06 19:09 -11.56214 -77.34070 11969 ft 220 kts 335°
2026-05-06 19:09 -11.54834 -77.34743 11967 ft 220 kts 335°
2026-05-06 19:09 -11.53454 -77.35418 11968 ft 220 kts 335°
2026-05-06 19:10 -11.52070 -77.36094 11967 ft 220 kts 335°
2026-05-06 19:10 -11.50686 -77.36772 11965 ft 221 kts 335°
2026-05-06 19:10 -11.49301 -77.37451 11954 ft 220 kts 334°
2026-05-06 19:10 -11.47918 -77.38124 11954 ft 221 kts 335°
2026-05-06 19:11 -11.46529 -77.38801 11961 ft 220 kts 335°
2026-05-06 19:11 -11.45149 -77.39472 11962 ft 220 kts 335°
2026-05-06 19:11 -11.43770 -77.40145 11960 ft 220 kts 335°
2026-05-06 19:11 -11.42390 -77.40821 11961 ft 220 kts 335°
2026-05-06 19:12 -11.41010 -77.41495 11957 ft 221 kts 335°
2026-05-06 19:12 -11.39624 -77.42175 11958 ft 221 kts 334°
2026-05-06 19:12 -11.38244 -77.42863 11959 ft 221 kts 334°
2026-05-06 19:12 -11.36863 -77.43564 11961 ft 221 kts 334°
2026-05-06 19:13 -11.35501 -77.44258 11964 ft 222 kts 334°
2026-05-06 19:13 -11.34119 -77.44961 11964 ft 221 kts 334°
2026-05-06 19:13 -11.32737 -77.45648 11979 ft 221 kts 334°
2026-05-06 19:13 -11.31349 -77.46326 11976 ft 221 kts 335°
2026-05-06 19:14 -11.29959 -77.47003 11910 ft 224 kts 334°
2026-05-06 19:14 -11.28549 -77.47701 11904 ft 223 kts 334°
2026-05-06 19:14 -11.27172 -77.48399 11968 ft 220 kts 334°
2026-05-06 19:14 -11.25789 -77.49081 11966 ft 221 kts 334°
2026-05-06 19:15 -11.24367 -77.49596 11887 ft 223 kts 354°
2026-05-06 19:15 -11.22844 -77.49404 11915 ft 218 kts 14°
2026-05-06 19:15 -11.21384 -77.49012 11968 ft 216 kts 17°
2026-05-06 19:15 -11.19901 -77.48794 11967 ft 216 kts
2026-05-06 19:16 -11.18438 -77.48439 11906 ft 219 kts 17°
2026-05-06 19:16 -11.16977 -77.47981 11962 ft 216 kts 18°
2026-05-06 19:16 -11.15538 -77.47517 11969 ft 217 kts 19°
2026-05-06 19:16 -11.14096 -77.47061 11968 ft 217 kts 18°
2026-05-06 19:17 -11.12646 -77.46624 11970 ft 217 kts 17°
2026-05-06 19:17 -11.11208 -77.46192 11970 ft 217 kts 18°
2026-05-06 19:17 -11.09759 -77.45757 11972 ft 217 kts 17°
2026-05-06 19:17 -11.08302 -77.45339 11972 ft 218 kts 17°
2026-05-06 19:18 -11.06836 -77.44929 11971 ft 219 kts 17°
2026-05-06 19:18 -11.05367 -77.44520 11972 ft 219 kts 17°
2026-05-06 19:18 -11.03904 -77.44106 11987 ft 218 kts 17°
2026-05-06 19:18 -11.02442 -77.43689 11987 ft 218 kts 17°
2026-05-06 19:19 -11.00981 -77.43273 11987 ft 218 kts 17°
2026-05-06 19:19 -10.99526 -77.42864 11986 ft 217 kts 17°
2026-05-06 19:19 -10.98074 -77.42452 11986 ft 216 kts 16°
2026-05-06 19:19 -10.96621 -77.42053 11987 ft 216 kts 15°
2026-05-06 19:20 -10.95163 -77.41666 11987 ft 217 kts 15°
2026-05-06 19:20 -10.93703 -77.41280 11987 ft 217 kts 15°
2026-05-06 19:20 -10.92240 -77.40892 11987 ft 217 kts 15°
2026-05-06 19:20 -10.90781 -77.40502 11988 ft 217 kts 16°
2026-05-06 19:21 -10.89315 -77.40111 11915 ft 222 kts 15°
2026-05-06 19:21 -10.87828 -77.39704 11987 ft 217 kts 16°
2026-05-06 19:21 -10.86393 -77.39302 12076 ft 214 kts 16°
2026-05-06 19:21 -10.84969 -77.38899 12108 ft 215 kts 16°
2026-05-06 19:22 -10.83503 -77.38482 12015 ft 221 kts 15°
2026-05-06 19:22 -10.82024 -77.38075 12001 ft 219 kts 16°
2026-05-06 19:22 -10.80561 -77.37675 11998 ft 216 kts 16°
2026-05-06 19:22 -10.79112 -77.37270 12046 ft 215 kts 16°
2026-05-06 19:23 -10.77659 -77.36876 12048 ft 216 kts 15°
2026-05-06 19:23 -10.76202 -77.36490 12050 ft 217 kts 15°
2026-05-06 19:23 -10.74735 -77.36104 12074 ft 218 kts 15°
2026-05-06 19:23 -10.73283 -77.35719 12078 ft 217 kts 15°
2026-05-06 19:24 -10.71818 -77.35333 12078 ft 217 kts 15°
2026-05-06 19:24 -10.70356 -77.34929 12081 ft 218 kts 17°
2026-05-06 19:24 -10.68891 -77.34520 12082 ft 218 kts 16°
2026-05-06 19:24 -10.67431 -77.34109 12083 ft 217 kts 16°
2026-05-06 19:25 -10.65972 -77.33705 12082 ft 217 kts 15°
2026-05-06 19:25 -10.64533 -77.33312 12211 ft 210 kts 15°
2026-05-06 19:25 -10.63138 -77.32936 12391 ft 204 kts 15°
2026-05-06 19:25 -10.61796 -77.32577 12570 ft 199 kts 15°
2026-05-06 19:26 -10.60465 -77.32220 12779 ft 196 kts 15°
2026-05-06 19:26 -10.59153 -77.31867 12965 ft 194 kts 15°
2026-05-06 19:26 -10.58620 -77.31725 13040 ft 193 kts 15°
2026-05-06 19:26 -10.57772 -77.31498 13164 ft 191 kts 15°
2026-05-06 19:27 -10.56491 -77.31154 13350 ft 190 kts 15°
2026-05-06 19:27 -10.55239 -77.30737 13539 ft 189 kts 27°
2026-05-06 19:27 -10.54123 -77.30076 13728 ft 188 kts 36°
2026-05-06 19:27 -10.53108 -77.29248 13927 ft 186 kts 43°
2026-05-06 19:28 -10.52162 -77.28344 14008 ft 192 kts 44°
2026-05-06 19:28 -10.51233 -77.27363 14091 ft 192 kts 51°
2026-05-06 19:28 -10.50419 -77.26264 14108 ft 197 kts 54°
2026-05-06 19:28 -10.49594 -77.25113 14117 ft 204 kts 54°
2026-05-06 19:29 -10.48747 -77.23933 14111 ft 208 kts 54°
2026-05-06 19:29 -10.47874 -77.22745 14152 ft 211 kts 49°
2026-05-06 19:29 -10.46806 -77.21711 14150 ft 213 kts 40°
2026-05-06 19:29 -10.45635 -77.20783 14170 ft 215 kts 37°
2026-05-06 19:30 -10.44438 -77.19886 14172 ft 216 kts 36°
2026-05-06 19:30 -10.43217 -77.18978 14170 ft 217 kts 36°
2026-05-06 19:30 -10.41993 -77.18067 14170 ft 218 kts 36°
2026-05-06 19:30 -10.40687 -77.17285 14173 ft 218 kts 25°
2026-05-06 19:31 -10.39316 -77.16659 14170 ft 219 kts 24°
2026-05-06 19:31 -10.37918 -77.16051 14171 ft 219 kts 22°
2026-05-06 19:31 -10.35044 -77.15041 14171 ft 219 kts 18°
2026-05-06 19:32 -10.33596 -77.14557 14172 ft 219 kts 18°
2026-05-06 19:32 -10.32149 -77.14076 14172 ft 219 kts 18°
2026-05-06 19:32 -10.30700 -77.13592 14196 ft 219 kts 18°
2026-05-06 19:32 -10.29251 -77.13113 14195 ft 219 kts 18°
2026-05-06 19:33 -10.27793 -77.12633 14195 ft 220 kts 18°
2026-05-06 19:33 -10.26343 -77.12157 14198 ft 219 kts 18°
2026-05-06 19:33 -10.24891 -77.11678 14197 ft 220 kts 18°
2026-05-06 19:33 -10.23435 -77.11199 14196 ft 220 kts 18°
2026-05-06 19:34 -10.21980 -77.10719 14192 ft 219 kts 20°
2026-05-06 19:34 -10.20743 -77.09850 14176 ft 218 kts 51°
2026-05-06 19:34 -10.19979 -77.08529 14179 ft 218 kts 70°
2026-05-06 19:34 -10.19638 -77.07037 14191 ft 217 kts 83°
2026-05-06 19:35 -10.19544 -77.05524 14193 ft 217 kts 90°
2026-05-06 19:35 -10.19609 -77.03995 14196 ft 217 kts 94°
2026-05-06 19:35 -10.19715 -77.02459 14199 ft 218 kts 94°
2026-05-06 19:35 -10.19824 -77.00926 14197 ft 218 kts 94°
2026-05-06 19:36 -10.19889 -77.00020 14201 ft 219 kts 94°
2026-05-06 19:36 -10.19960 -76.99030 14198 ft 219 kts 94°
2026-05-06 19:36 -10.19944 -76.97501 14199 ft 220 kts 83°
2026-05-06 19:36 -10.19581 -76.95989 14153 ft 222 kts 72°
2026-05-06 19:37 -10.19082 -76.94489 14046 ft 226 kts 68°
2026-05-06 19:37 -10.18267 -76.93132 13998 ft 225 kts 44°
2026-05-06 19:37 -10.16933 -76.92342 14045 ft 219 kts 16°
2026-05-06 19:37 -10.15952 -76.92239 14157 ft 214 kts 359°
2026-05-06 19:38 -10.14016 -76.92433 14468 ft 199 kts 349°
2026-05-06 19:38 -10.12723 -76.92929 14579 ft 202 kts 330°
2026-05-06 19:38 -10.11539 -76.93627 14795 ft 196 kts 336°
2026-05-06 19:38 -10.10254 -76.94024 15079 ft 190 kts 345°
2026-05-06 19:39 -10.08995 -76.94423 15080 ft 201 kts 338°
2026-05-06 19:39 -10.07696 -76.95160 14751 ft 220 kts 338°
2026-05-06 19:39 -10.06279 -76.94907 14843 ft 211 kts 32°
2026-05-06 19:39 -10.04957 -76.94212 14763 ft 218 kts 24°
2026-05-06 19:40 -10.03579 -76.93525 14686 ft 221 kts 28°
2026-05-06 19:40 -10.02238 -76.92790 14750 ft 218 kts 29°
2026-05-06 19:40 -10.00914 -76.92054 14825 ft 216 kts 29°
2026-05-06 19:40 -9.99616 -76.91334 14889 ft 214 kts 29°
2026-05-06 19:41 -9.98308 -76.90610 14953 ft 213 kts 29°
2026-05-06 19:41 -9.97003 -76.89887 14992 ft 214 kts 29°
2026-05-06 19:41 -9.95686 -76.89157 14993 ft 217 kts 29°
2026-05-06 19:41 -9.94360 -76.88423 14996 ft 217 kts 29°
2026-05-06 19:42 -9.93024 -76.87700 15002 ft 218 kts 29°
2026-05-06 19:42 -9.91667 -76.86997 14998 ft 218 kts 29°
2026-05-06 19:42 -9.90309 -76.86301 14997 ft 218 kts 29°
2026-05-06 19:42 -9.89410 -76.85843 15000 ft 217 kts 29°
2026-05-06 19:43 -9.88053 -76.85154 15002 ft 220 kts 28°
2026-05-06 19:43 -9.86252 -76.84223 15009 ft 217 kts 29°
2026-05-06 19:43 -9.84919 -76.83531 15016 ft 213 kts 29°
2026-05-06 19:43 -9.84024 -76.83073 15013 ft 214 kts 29°
2026-05-06 19:44 -9.82709 -76.82404 15015 ft 215 kts 28°
2026-05-06 19:44 -9.81371 -76.81719 15014 ft 216 kts 28°
2026-05-06 19:44 -9.80034 -76.81028 15013 ft 216 kts 28°
2026-05-06 19:44 -9.78691 -76.80343 15014 ft 217 kts 28°
2026-05-06 19:45 -9.77346 -76.79662 15021 ft 213 kts 28°
2026-05-06 19:45 -9.76044 -76.78999 15157 ft 207 kts 28°
2026-05-06 19:45 -9.74771 -76.78351 15281 ft 202 kts 28°
2026-05-06 19:45 -9.73520 -76.77720 15409 ft 200 kts 28°
2026-05-06 19:46 -9.72278 -76.77091 15535 ft 199 kts 28°
2026-05-06 19:46 -9.71045 -76.76455 15691 ft 198 kts 29°
2026-05-06 19:46 -9.69817 -76.75817 15816 ft 198 kts 28°
2026-05-06 19:46 -9.68591 -76.75185 15959 ft 197 kts 29°
2026-05-06 19:47 -9.67359 -76.74552 16032 ft 201 kts 28°
2026-05-06 19:47 -9.66094 -76.73896 16039 ft 206 kts 28°
2026-05-06 19:47 -9.64804 -76.73222 16042 ft 211 kts 28°
2026-05-06 19:47 -9.63504 -76.72550 16047 ft 214 kts 28°
2026-05-06 19:48 -9.62157 -76.71855 16041 ft 215 kts 28°
2026-05-06 19:48 -9.60844 -76.71174 16042 ft 214 kts 27°
2026-05-06 19:48 -9.59461 -76.70619 16044 ft 213 kts 20°
2026-05-06 19:48 -9.58043 -76.70164 16045 ft 215 kts 19°
2026-05-06 19:49 -9.56610 -76.69718 16036 ft 216 kts 18°
2026-05-06 19:49 -9.55148 -76.69352 16037 ft 216 kts 11°
2026-05-06 19:49 -9.53670 -76.69069 16040 ft 216 kts 11°
2026-05-06 19:49 -9.52224 -76.68639 16037 ft 219 kts 22°
2026-05-06 19:50 -9.50833 -76.67967 16046 ft 223 kts 31°
2026-05-06 19:50 -9.49553 -76.67094 16048 ft 226 kts 39°
2026-05-06 19:50 -9.48346 -76.66048 16043 ft 229 kts 42°
2026-05-06 19:50 -9.47143 -76.64970 16044 ft 232 kts 42°
2026-05-06 19:51 -9.45935 -76.63881 16034 ft 232 kts 42°
2026-05-06 19:51 -9.44732 -76.62789 16032 ft 233 kts 43°
2026-05-06 19:51 -9.43526 -76.61695 16034 ft 233 kts 43°
2026-05-06 19:51 -9.42310 -76.60599 16015 ft 234 kts 43°
2026-05-06 19:52 -9.41093 -76.59501 16011 ft 235 kts 43°
2026-05-06 19:52 -9.39874 -76.58397 16011 ft 235 kts 43°
2026-05-06 19:52 -9.38652 -76.57295 16010 ft 235 kts 43°
2026-05-06 19:52 -9.37449 -76.56209 16009 ft 235 kts 42°
2026-05-06 19:53 -9.36227 -76.55103 16009 ft 235 kts 43°
2026-05-06 19:53 -9.35013 -76.54007 16006 ft 233 kts 43°
2026-05-06 19:53 -9.33802 -76.52922 16002 ft 231 kts 43°
2026-05-06 19:53 -9.32606 -76.51845 15997 ft 229 kts 42°
2026-05-06 19:54 -9.31423 -76.50779 15995 ft 227 kts 43°
2026-05-06 19:54 -9.30244 -76.49721 15956 ft 226 kts 44°
2026-05-06 19:54 -9.29196 -76.48542 15956 ft 225 kts 56°
2026-05-06 19:54 -9.28332 -76.47229 15960 ft 223 kts 59°
2026-05-06 19:55 -9.27501 -76.45912 15836 ft 227 kts 59°
2026-05-06 19:55 -9.26647 -76.44553 15726 ft 231 kts 59°
2026-05-06 19:55 -9.25783 -76.43169 15613 ft 233 kts 59°
2026-05-06 19:55 -9.24919 -76.41781 15505 ft 233 kts 59°
2026-05-06 19:56 -9.24063 -76.40416 15384 ft 225 kts 59°
2026-05-06 19:56 -9.23235 -76.39102 15252 ft 218 kts 59°
2026-05-06 19:56 -9.22432 -76.37815 15112 ft 213 kts 59°
2026-05-06 19:56 -9.21649 -76.36564 14996 ft 209 kts 59°
2026-05-06 19:57 -9.20880 -76.35348 14809 ft 207 kts 59°
2026-05-06 19:57 -9.20107 -76.34120 14687 ft 206 kts 59°
2026-05-06 19:57 -9.19342 -76.32894 14549 ft 206 kts 59°
2026-05-06 19:57 -9.18569 -76.31681 14362 ft 205 kts 59°
2026-05-06 19:58 -9.17795 -76.30475 14179 ft 204 kts 59°
2026-05-06 19:58 -9.17020 -76.29262 14000 ft 206 kts 59°
2026-05-06 19:58 -9.16199 -76.28064 13812 ft 208 kts 50°
2026-05-06 19:58 -9.15147 -76.27047 13619 ft 210 kts 44°
2026-05-06 19:59 -9.14029 -76.26044 13233 ft 219 kts 43°
2026-05-06 19:59 -9.12871 -76.25006 12833 ft 224 kts 43°
2026-05-06 19:59 -9.11696 -76.23949 12399 ft 227 kts 43°
2026-05-06 19:59 -9.10505 -76.22887 11999 ft 228 kts 43°
2026-05-06 20:00 -9.09348 -76.21851 11604 ft 223 kts 43°
2026-05-06 20:00 -9.08364 -76.20685 11157 ft 215 kts 57°
2026-05-06 20:00 -9.07631 -76.19392 10751 ft 209 kts 69°
2026-05-06 20:00 -9.07235 -76.18017 10351 ft 205 kts 83°
2026-05-06 20:01 -9.07083 -76.16588 9969 ft 203 kts 87°
2026-05-06 20:01 -9.07262 -76.15181 9541 ft 202 kts 104°
2026-05-06 20:01 -9.07629 -76.13814 9121 ft 200 kts 106°
2026-05-06 20:01 -9.07998 -76.12465 8704 ft 198 kts 106°
2026-05-06 20:02 -9.08381 -76.11131 8286 ft 197 kts 110°
2026-05-06 20:02 -9.08955 -76.09877 7879 ft 196 kts 117°
2026-05-06 20:02 -9.09593 -76.08651 7478 ft 197 kts 118°
2026-05-06 20:02 -9.10330 -76.07511 7084 ft 196 kts 128°
2026-05-06 20:03 -9.11161 -76.06464 6877 ft 187 kts 129°
2026-05-06 20:03 -9.11973 -76.05455 6650 ft 183 kts 129°
2026-05-06 20:03 -9.12775 -76.04459 6408 ft 182 kts 129°
2026-05-06 20:03 -9.13571 -76.03472 6158 ft 180 kts 129°
2026-05-06 20:04 -9.14403 -76.02534 5902 ft 179 kts 139°
2026-05-06 20:04 -9.15426 -76.01820 5658 ft 178 kts 148°
2026-05-06 20:04 -9.16490 -76.01179 5421 ft 178 kts 149°
2026-05-06 20:04 -9.17569 -76.00551 5106 ft 181 kts 150°
2026-05-06 20:05 -9.18704 -75.99962 4657 ft 190 kts 155°
2026-05-06 20:05 -9.19955 -75.99514 4074 ft 187 kts 166°
2026-05-06 20:05 -9.21192 -75.99457 3716 ft 173 kts 187°
2026-05-06 20:05 -9.22335 -75.99672 3430 ft 160 kts 193°
2026-05-06 20:06 -9.23388 -75.99934 3139 ft 153 kts 192°
2026-05-06 20:06 -9.24410 -76.00102 2929 ft 144 kts 186°
2026-05-06 20:06 -9.25436 -76.00205 2742 ft 151 kts 185°
2026-05-06 20:06 -9.26489 -76.00278 2609 ft 145 kts 184°
2026-05-06 20:07 -9.27473 -76.00360 2397 ft 139 kts 184°
2026-05-06 20:07 -9.28392 -76.00449 2132 ft 127 kts 185°
2026-05-06 20:07 -9.28894 -76.00496 2109 ft 12 kts 187°
2026-05-06 20:07 -9.28946 -76.00503 2109 ft 0 kts 186°
2026-05-06 20:08 -9.28997 -76.00510 2110 ft 26 kts 188°
2026-05-06 20:08 -9.29210 -76.00525 2116 ft 31 kts 185°
2026-05-06 20:08 -9.29398 -76.00547 2115 ft 18 kts 187°
2026-05-06 20:08 -9.29507 -76.00555 2115 ft 5 kts 161°
2026-05-06 20:09 -9.29599 -76.00505 2122 ft 5 kts 112°
2026-05-06 20:09 -9.29591 -76.00485 2124 ft 6 kts 90°
2026-05-06 20:09 -9.29600 -76.00477 2126 ft 0 kts 183°